This demonstration page uses our WeatherBlox Daily Observations layout. Learn more.

Left ArrowRight Arrow

41.86663, -103.66717

Hourly Observations for March 19, 2020

Temp ( °F °C ) Dew Point ( °F °C ) Humidity (%) Winds ( mph kmh ) Pressure ( in mb ) Visibility ( mi km ) Precip ( " mm )
12:19 am 00:19 Cloudy 40 4.4 40 4.4 100 100 S 5 7 29.84 1011 10 16 0.00 0.00
12:29 am 00:29 Cloudy 40 4.4 39 3.9 97 97 SE 7 11 29.82 1010 9 14 0.00 0.00
12:53 am 00:53 Cloudy with Light Rain 40 4.4 40 4.4 100 100 N N/A 29.79 1009 10 16 0.00 0.00
1:53 am 01:53 Cloudy with Light Rain 40 4.4 40 4.4 100 100 N N/A 29.79 1009 8 13 0.04 1.02
2:53 am 02:53 Cloudy 40 4.4 40 4.4 100 100 N 3 6 29.78 1008 7 11 0.00 0.00
3:15 am 03:15 Cloudy 40 4.4 40 4.4 100 100 NNE 6 9 29.79 1009 7 11 N/A
3:44 am 03:44 Cloudy 39 4 39 4 100 100 NE 8 13 29.79 1009 7 11 N/A
3:53 am 03:53 Cloudy 39 3.9 39 3.9 100 100 ENE 7 11 29.73 1007 8 13 N/A
4:26 am 04:26 Cloudy 39 3.9 39 3.9 100 100 NE 10 17 29.77 1008 10 16 N/A
4:42 am 04:42 Mostly Cloudy 39 4 37 3 93 93 NE 12 19 29.76 1008 10 16 N/A
4:49 am 04:49 Partly Cloudy 39 4 37 3 93 93 NE 10 17 29.76 1008 10 16 N/A
4:53 am 04:53 Partly Cloudy 38 3.3 38 3.3 100 100 NE 9 15 29.71 1006 10 16 N/A
5:37 am 05:37 Cloudy 39 3.9 39 3.9 100 100 ENE 10 17 29.79 1009 10 16 N/A
5:45 am 05:45 Cloudy 39 3.9 39 3.9 100 100 NE 8 13 29.80 1009 10 16 N/A
5:53 am 05:53 Cloudy 39 3.9 39 3.9 100 100 NNE 9 15 29.75 1007 10 16 N/A
6:48 am 06:48 Cloudy with Mist and Fog 39 4 39 4 100 100 N 13 20 29.80 1009 3 4 N/A
6:53 am 06:53 Cloudy with Mist and Fog 39 3.9 39 3.9 100 100 N 13 20 29.76 1008 3 5 N/A
7:04 am 07:04 Cloudy with Mist and Fog 39 3.9 38 3.3 96 96 N 18 30 29.81 1009 6 10 N/A
7:40 am 07:40 Cloudy 38 3.3 37 2.8 97 97 N 17 28 29.82 1010 8 13 N/A
7:53 am 07:53 Cloudy 38 3.3 37 2.8 97 97 N 21 33 29.77 1008 10 16 N/A
8:02 am 08:02 Cloudy 38 3.3 36 2.2 93 93 N 18 30 29.82 1010 10 16 N/A
8:22 am 08:22 Cloudy 38 3.3 36 2.2 93 93 N 18 30 29.82 1010 10 16 N/A
8:53 am 08:53 Cloudy 38 3.3 36 2.2 93 93 NNE 21 33 29.77 1008 10 16 N/A
9:53 am 09:53 Cloudy 38 3.3 35 1.7 89 89 NNE 28 44 29.78 1009 10 16 N/A
10:53 am 10:53 Cloudy 39 3.9 35 1.7 86 86 NNE 36 57 29.78 1009 10 16 N/A
11:12 am 11:12 Cloudy 39 3.9 34 1.1 82 82 NNE 30 48 29.81 1009 10 16 N/A
11:53 am 11:53 Cloudy 38 3.3 33 0.6 83 83 NNE 33 54 29.81 1009 10 16 N/A
12:51 pm 12:51 Cloudy with Light Wintry Mix 34 1 30 -1 87 87 NNE 29 46 29.91 1013 9 14 0.00 0.00
12:53 pm 12:53 Cloudy with Light Wintry Mix 34 1.1 30 -1.1 85 85 N 29 46 29.86 1011 9 14 0.00 0.00
1:16 pm 13:16 Windy with Snow Likely 32 undefined 28 -2.2 85 85 N 25 41 29.96 1015 3 5 0.00 0.00
1:23 pm 13:23 Windy with Snow Likely 32 undefined 28 -2.2 85 85 NNE 31 50 29.96 1015 2 3 0.00 0.00
1:46 pm 13:46 Mostly Cloudy with Light Snow 31 -0.6 28 -2.2 89 89 N 28 44 29.98 1015 1 1 0.00 0.00
1:53 pm 13:53 Mostly Cloudy with Snow 31 -0.6 28 -2.2 89 89 N 32 52 29.90 1013 1 1 0.01 0.25
2:18 pm 14:18 Mostly Cloudy with Snow 30 -1 28 -2 93 93 NNE 30 48 30.02 1016 0 0 N/A
2:30 pm 14:30 Mostly Cloudy with Light Snow 31 -0.6 27 -2.8 85 85 N 31 50 30.03 1017 1 1 0.01 0.25
2:41 pm 14:41 Windy with Snow Likely 30 -1 27 -3 86 86 NNE 28 44 30.06 1018 1 2 N/A
2:53 pm 14:53 Windy with Snow Likely 30 -1.1 26 -3.3 85 85 N 22 35 30.00 1016 2 2 0.01 0.25
3:00 pm 15:00 Windy with Snow Likely 30 -1.1 25 -3.9 82 82 N 21 33 30.10 1019 2 3 0.00 0.00
3:07 pm 15:07 Windy with Snow Likely 30 -1.1 25 -3.9 82 82 N 22 35 30.11 1020 3 4 0.00 0.00
3:16 pm 15:16 Windy with Snow Likely 30 -1.1 25 -3.9 82 82 N 21 33 30.12 1020 3 5 0.00 0.00
3:25 pm 15:25 Cloudy with Light Snow 30 -1.1 25 -3.9 82 82 N 18 30 30.14 1021 3 4 0.00 0.00
3:34 pm 15:34 Cloudy with Light Snow 30 -1 25 -4 80 80 N 17 28 30.15 1021 1 2 N/A
3:46 pm 15:46 Mostly Cloudy with Light Snow 29 -1.7 25 -3.9 85 85 NNW 15 24 30.17 1022 1 1 0.01 0.25
3:53 pm 15:53 Mostly Cloudy with Snow 29 -1.7 26 -3.3 89 89 N 15 24 30.10 1019 1 1 0.01 0.25
4:20 pm 16:20 Mostly Cloudy with Light Snow 28 -2.2 24 -4.4 85 85 N 18 30 30.22 1023 1 1 0.01 0.25
4:34 pm 16:34 Mostly Cloudy with Snow 28 -2.2 25 -3.9 88 88 N 14 22 30.23 1024 1 1 0.02 0.51
4:53 pm 16:53 Mostly Cloudy with Snow 27 -2.8 24 -4.4 89 89 N 21 33 30.16 1021 1 1 0.04 1.02
5:29 pm 17:29 Mostly Cloudy with Light Snow 27 -2.8 23 -5 85 85 N 22 35 30.29 1026 1 1 0.02 0.51
5:40 pm 17:40 Windy with Snow Likely 27 -2.8 22 -5.6 81 81 N 22 35 30.30 1026 1 2 0.02 0.51
5:53 pm 17:53 Cloudy with Light Snow 26 -3.3 22 -5.6 84 84 N 14 22 30.21 1023 3 5 0.02 0.51
6:00 pm 18:00 Cloudy with Haze 27 -3 21 -6 80 80 N 18 30 30.31 1026 6 10 N/A
6:53 pm 18:53 Cloudy 25 -3.9 20 -6.7 81 81 N 14 22 30.27 1025 10 16 0.00 0.00
7:27 pm 19:27 Cloudy 25 -3.9 20 -6.7 81 81 N 10 17 30.42 1030 10 16 N/A
7:53 pm 19:53 Cloudy 24 -4.4 18 -7.8 77 77 N 15 24 30.34 1027 10 16 N/A
8:04 pm 20:04 Cloudy 25 -4 18 -8 74 74 N 16 26 30.45 1031 10 16 N/A
8:18 pm 20:18 Cloudy 24 -4.4 18 -7.8 77 77 N 16 26 30.45 1031 10 16 N/A
8:53 pm 20:53 Cloudy 24 -4.4 19 -7.2 81 81 N 12 19 30.37 1029 10 16 N/A
9:21 pm 21:21 Cloudy 24 -4.4 18 -7.8 77 77 N 17 28 30.49 1032 10 16 N/A
9:46 pm 21:46 Cloudy 23 -5 18 -7.8 81 81 NNE 16 26 30.51 1033 10 16 N/A
9:53 pm 21:53 Cloudy 23 -5 18 -7.8 81 81 NNE 18 30 30.40 1029 10 16 N/A
10:53 pm 22:53 Cloudy 23 -5 18 -7.8 81 81 N 10 17 30.44 1031 10 16 N/A
11:27 pm 23:27 Cloudy 22 -5.6 16 -8.9 78 78 N 12 19 30.59 1036 10 16 N/A
11:53 pm 23:53 Cloudy 22 -5.6 16 -8.9 78 78 N 13 20 30.48 1032 10 16 N/A

Powered by AerisWeather